Jonesboro, AR

4:51 AM CDT on July 25, 2017 (GMT -0500)
Jonesboro Municipal

Weather History for KJBR - January, 2013

Change the Weather History Date:

Friday, January 4, 2013

  Actual Average Record
Temperature  
Mean Temperature 35 °F 37 °F  
Max Temperature 45 °F 46 °F 72 °F (1997)
Min Temperature 25 °F 29 °F 1 °F (1919)
Degree Days  
Heating Degree Days 30 28  
Month to date heating degree days 128 112  
Since 1 July heating degree days 1390 1554  
Cooling Degree Days 0 0  
Month to date cooling degree days 0 0  
Year to date cooling degree days 0 0  
Moisture  
Dew Point 26 °F    
Average Humidity 71    
Maximum Humidity 92    
Minimum Humidity 49    
Precipitation  
Precipitation 0.00 in 0.11 in 2.18 in (1949)
Month to date precipitation T 0.43  
Year to date precipitation T 0.43  
Snow  
Snow 0.00 in - - ()
Month to date snowfall 0.0  
Snow Depth 0.00 in    
Sea Level Pressure  
Sea Level Pressure 30.44 in    
Wind  
Wind Speed 3 mph (West)    
Max Wind Speed 12 mph    
Max Gust Speed 14 mph    
Visibility 10 miles    
Events      
T = Trace of Precipitation, MM = Missing Value Source: NWS Daily Summary

Daily Weather History Graph

Daily Weather History Graph

Search for Another Location

Airport or City:

Trip Planner

Search our weather history database for the weather conditions in past years. The results will help you decide how hot, cold, wet, or windy it might be!

Date:

Astronomy

Jan. 04, 2013 Rise Set
Actual Time 7:13 AM CST 5:02 PM CST
Civil Twilight 6:44 AM CST 5:30 PM CST
Nautical Twilight 6:13 AM CST 6:02 PM CST
Astronomical Twilight 5:42 AM CST 6:33 PM CST
Moon No Moon Rise 11:11 AM CST (1/4)
Length of Visible Light 10h 45m
Length of Day
9h 49m
Waning Gibbous, 55% of the Moon is Illuminated
Jan 4
Waning Gibbous
Jan 4
Last Quarter
Jan 11
New
Jan 18
First Quarter
Jan 26
Full

Hourly Weather History & Observations

Time (CST) Temp. Windchill Dew Point Humidity Pressure Visibility Wind Dir Wind Speed Gust Speed Precip Events Conditions
12:53 AM 27.0 °F - 23.0 °F 85% 30.43 in 10.0 mi Calm Calm - N/A   Clear
1:53 AM 26.1 °F - 23.0 °F 88% 30.43 in 8.0 mi Calm Calm - N/A   Clear
2:53 AM 27.0 °F - 23.0 °F 85% 30.44 in 9.0 mi Calm Calm - N/A   Clear
3:53 AM 26.1 °F - 21.9 °F 84% 30.44 in 10.0 mi Calm Calm - N/A   Clear
4:53 AM 27.0 °F - 23.0 °F 85% 30.43 in 10.0 mi Calm Calm - N/A   Clear
5:53 AM 28.4 °F 24.6 °F 24.8 °F 86% 30.44 in 10.0 mi West 3.5 mph - N/A   Clear
6:53 AM 26.1 °F - 21.9 °F 84% 30.45 in 10.0 mi Calm Calm - N/A   Clear
7:53 AM 27.0 °F 23.0 °F 24.1 °F 89% 30.48 in 9.0 mi West 3.5 mph - N/A   Clear
8:53 AM 33.1 °F - 28.0 °F 82% 30.49 in 9.0 mi Calm Calm - N/A   Clear
9:53 AM 37.9 °F 33.5 °F 28.9 °F 70% 30.50 in 10.0 mi West 5.8 mph - N/A   Clear
10:53 AM 39.9 °F 33.9 °F 27.0 °F 60% 30.49 in 10.0 mi West 9.2 mph - N/A   Clear
11:53 AM 43.0 °F 37.7 °F 28.0 °F 56% 30.47 in 10.0 mi West 9.2 mph - N/A   Clear
12:53 PM 44.1 °F 39.5 °F 28.9 °F 55% 30.44 in 10.0 mi West 8.1 mph - N/A   Clear
1:53 PM 45.0 °F 41.2 °F 28.0 °F 52% 30.43 in 10.0 mi West 6.9 mph - N/A   Clear
2:53 PM 45.0 °F 40.6 °F 26.1 °F 48% 30.42 in 10.0 mi WNW 8.1 mph - N/A   Clear
3:53 PM 44.1 °F 39.5 °F 27.0 °F 51% 30.42 in 10.0 mi WNW 8.1 mph - N/A   Clear
4:53 PM 41.0 °F 38.0 °F 28.9 °F 62% 30.41 in 10.0 mi SSW 4.6 mph - N/A   Clear
5:53 PM 37.0 °F - 28.0 °F 70% 30.42 in 10.0 mi Calm Calm - N/A   Clear
6:53 PM 33.1 °F - 27.0 °F 78% 30.43 in 10.0 mi Calm Calm - N/A   Clear
7:53 PM 30.9 °F - 26.1 °F 82% 30.42 in 10.0 mi Calm Calm - N/A   Clear
8:53 PM 30.0 °F - 26.1 °F 85% 30.42 in 9.0 mi Calm Calm - N/A   Clear
9:53 PM 28.9 °F - 26.1 °F 89% 30.41 in 8.0 mi Calm Calm - N/A   Clear
10:53 PM 28.9 °F - 25.0 °F 85% 30.40 in 8.0 mi Calm Calm - N/A   Clear
11:53 PM 28.0 °F - 25.0 °F 88% 30.40 in 10.0 mi Calm Calm - N/A   Clear